Weather History for KNUQ - September, 2007

Change the Weather History Date:

Tuesday, September 25, 2007

  Actual Average Record
Temperature  
Mean Temperature 68 °F 67 °F  
Max Temperature 84 °F 77 °F 91 °F (1978)
Min Temperature 53 °F 57 °F 43 °F (1948)
Degree Days  
Heating Degree Days 0    
Month to date heating degree days  
Since 1 July heating degree days  
Cooling Degree Days 2    
Month to date cooling degree days  
Year to date cooling degree days  
Growing Degree Days 18 (Base 50)    
Moisture  
Dew Point 45 °F    
Average Humidity 49    
Maximum Humidity 72    
Minimum Humidity 19    
Precipitation  
Precipitation 0.00 in 0.00 in 0.41 in (2014)
Month to date precipitation 0.13  
Year to date precipitation 9.79  
Since 1 July precipitation 0.16  
Sea Level Pressure  
Sea Level Pressure 30.05 in    
Wind  
Wind Speed 2 mph (NNW)    
Max Wind Speed 10 mph    
Max Gust Speed -    
Visibility 10 miles    
Events      
T = Trace of Precipitation, MM = Missing Value Source: NWS Daily Summary

Daily Weather History Graph

Daily Weather History Graph

Search for Another Location

Airport or City:

Trip Planner

Search our weather history database for the weather conditions in past years. The results will help you decide how hot, cold, wet, or windy it might be!

Date:

Astronomy

Sep. 25, 2007 Rise Set
Actual Time 6:58 AM PDT 7:00 PM PDT
Civil Twilight 6:32 AM PDT 7:26 PM PDT
Nautical Twilight 6:01 AM PDT 7:57 PM PDT
Astronomical Twilight 5:31 AM PDT 8:27 PM PDT
Moon 6:25 PM PDT (9/25) 5:34 AM PDT (9/25)
Length of Visible Light 12h 54m
Length of Day
12h 02m
Waxing Gibbous, 98% of the Moon is Illuminated
Sep 25
Waxing Gibbous
Sep 26
Full
Oct 3
Last Quarter
Oct 10
New
Oct 19
First Quarter

Hourly Weather History & Observations

Time (PDT) Temp. Dew Point Humidity Pressure Visibility Wind Dir Wind Speed Gust Speed Precip Events Conditions
12:56 AM 60.1 °F 46.9 °F 62% 30.08 in 10.0 mi Calm Calm - N/A   Clear
1:56 AM 57.9 °F 46.0 °F 65% 30.08 in 10.0 mi Calm Calm - N/A   Clear
2:56 AM 55.0 °F 45.0 °F 69% 30.07 in 10.0 mi Calm Calm - N/A   Clear
3:56 AM 55.0 °F 45.0 °F 69% 30.06 in 10.0 mi Calm Calm - N/A   Clear
4:56 AM 54.0 °F 45.0 °F 72% 30.06 in 10.0 mi Calm Calm - N/A   Clear
5:56 AM 54.0 °F 44.1 °F 69% 30.06 in 10.0 mi South 3.5 mph - N/A   Clear
6:56 AM 53.1 °F 44.1 °F 71% 30.07 in 10.0 mi Calm Calm - N/A   Clear
7:56 AM 55.9 °F 46.0 °F 69% 30.09 in 10.0 mi Calm Calm - N/A   Clear
8:56 AM 61.0 °F 45.0 °F 56% 30.09 in 10.0 mi Calm Calm - N/A   Clear
9:56 AM 66.9 °F 44.1 °F 44% 30.10 in 10.0 mi Calm Calm - N/A   Clear
10:56 AM 69.1 °F 46.0 °F 44% 30.10 in 10.0 mi NNW 6.9 mph - N/A   Clear
11:56 AM 75.9 °F 42.1 °F 30% 30.09 in 10.0 mi NNW 4.6 mph - N/A   Clear
12:56 PM 78.1 °F 42.1 °F 28% 30.06 in 10.0 mi Calm Calm - N/A   Clear
1:56 PM 80.1 °F 42.1 °F 26% 30.04 in 10.0 mi North 10.4 mph - N/A   Clear
2:56 PM 82.0 °F 39.0 °F 22% 30.02 in 10.0 mi NW 6.9 mph - N/A   Clear
3:56 PM 82.9 °F 37.0 °F 19% 30.00 in 10.0 mi Variable 6.9 mph - N/A   Clear
4:56 PM 82.0 °F 39.9 °F 22% 30.00 in 10.0 mi NNW 9.2 mph - N/A   Clear
5:56 PM 79.0 °F 42.1 °F 27% 29.99 in 10.0 mi NW 10.4 mph - N/A   Clear
6:56 PM 73.0 °F 53.1 °F 49% 30.00 in 10.0 mi North 8.1 mph - N/A   Clear
7:56 PM 68.0 °F 53.1 °F 59% 30.01 in 10.0 mi NNW 4.6 mph - N/A   Clear
8:56 PM 66.9 °F 52.0 °F 59% 30.03 in 10.0 mi Calm Calm - N/A   Clear
9:56 PM 68.0 °F 48.9 °F 50% 30.03 in 10.0 mi Calm Calm - N/A   Clear
10:56 PM 64.9 °F 46.9 °F 52% 30.04 in 10.0 mi Calm Calm - N/A   Clear
11:56 PM 63.0 °F 46.0 °F 54% 30.04 in 10.0 mi Calm Calm - N/A   Clear